Location: Chièsaz
(46.4729°N, 6.8853°E)
Time: 14:17:10
(UTC+00:00)

Daily predictions for brighter satellites

Satellite Brightness Start Highest point End
(mag) Time Altitude Azimuth Time Altitude Azimuth Time Altitude Azimuth
Cosmos 1515 4.1 19:40:43 10° SSE 19:44:18 42° E 19:47:53 10° NNE
CZ-4B R/B 1.6 19:42:18 10° NNE 19:45:23 43° E 19:48:23 10° S
SPOT 1/Viking Rocket 3.8 19:41:09 10° SSE 19:46:11 55° ENE 19:51:13 10° N
Resurs 1-3 4.0 19:42:35 10° S 19:46:56 66° WSW 19:51:20 10° NNW
Meteor 1-27 Rocket 4.0 19:41:23 10° S 19:46:59 54° E 19:52:43 10° NNE
CZ-4 R/B 4.3 19:47:22 10° WSW 19:49:20 13° W 19:51:19 10° WNW
Cosmos 1633 Rocket 3.5 19:46:57 10° NNW 19:51:19 66° W 19:55:37 10° S
Cosmos 2219 3.4 19:46:46 10° NNW 19:52:25 77° WSW 19:58:00 10° SSE
SJ 16-02 2.5 19:50:17 10° SSE 19:53:46 24° E 19:57:16 10° NE
H-2A R/B 4.2 19:50:09 10° SSW 19:54:07 33° W 19:57:58 10° NNW
Cosmos 1315 Rocket 3.9 19:50:37 10° NNW 19:54:32 46° W 19:58:22 10° S
Cosmos 1340 2.9 19:51:01 10° S 19:54:37 48° E 19:58:14 10° NNE
USA 186 4.3 19:57:29 10° WSW 19:58:18 11° W 19:59:05 10° WNW
Cosmos 2082 3.8 19:53:37 10° NNW 19:59:15 67° ENE 20:04:49 10° SE
OBJECT-B 4.0 19:59:57 10° W 20:00:15 10° W 20:00:34 10° W
Meteor 1-11 Rocket 4.0 19:54:24 10° NNW 20:00:25 87° W 20:06:22 10° S
Cosmos 482 Debris 4.4 19:58:43 10° NW 20:01:14 46° NNE 20:04:58 10° E
Cosmos 2263 Rocket 3.0 19:57:02 10° NNW 20:02:16 38° NE 20:07:26 10° ESE
Cosmos 1470 Rocket 3.6 19:58:22 10° N 20:02:42 84° W 20:07:01 10° S
Cosmos 1743 2.6 20:02:09 10° N 20:05:57 75° E 20:09:42 10° SSE
Ariane Rocket 3.0 20:00:58 10° SSE 20:06:01 77° ENE 20:11:08 10° NNW
BREEZE-M DEB (TANK) 2.7 20:08:20 10° W 20:11:13 51° NNW 20:13:20 10° ENE
SPOT 5 3.9 20:06:31 10° SE 20:11:14 35° ENE 20:15:51 10° N
IRAS Rocket 4.3 20:06:29 10° NNE 20:12:09 77° ESE 20:17:47 10° SSW
Terra 3.2 20:09:08 10° ESE 20:12:56 24° ENE 20:16:45 10° N
Resurs 01 Rocket 1.9 20:10:24 10° S 20:14:47 68° WSW 20:19:12 10° NNW
Aureole 1 Rocket 2.3 20:13:25 10° SSW 20:16:38 78° WNW 20:19:37 10° NNE
Cosmos 1515 Rocket 3.6 20:12:59 10° S 20:17:21 84° W 20:21:47 10° N
Cosmos 2227 Rocket 3.2 20:14:57 10° NW 20:20:17 42° WSW 20:25:34 10° S
Cosmos 921 Rocket 3.1 20:17:04 10° NNW 20:21:37 79° ENE 20:25:38 13° SSE
SWAS 4.5 20:23:30 10° NNW 20:27:50 89° WSW 20:31:20 15° SSE
Cosmos 1980 Rocket 2.1 20:23:49 10° SSW 20:29:25 76° ESE 20:35:06 10° NNE
CARTOSAT-1 3.5 20:26:14 12° SSE 20:30:13 83° ENE 20:34:34 10° NNW
Cosmos 1869 Rocket 3.8 20:26:37 10° N 20:31:03 56° ENE 20:34:33 16° SSE
Cosmos 2228 Rocket 3.5 20:29:01 12° SSE 20:33:02 47° E 20:37:24 10° NNE
Cosmos 1464 Rocket 4.1 20:27:55 10° SSW 20:34:08 79° W 20:40:18 10° N
Cosmos 1378 3.9 20:34:31 18° SE 20:36:38 33° E 20:39:57 10° NNE
Cosmos 2344 3.5 20:30:09 10° SSW 20:37:40 84° SE 20:45:23 10° NE
Cosmos 2322 Rocket 3.7 20:36:17 15° SE 20:38:20 18° E 20:42:01 10° ENE
Cosmos 1777 Rocket 4.2 20:33:42 10° S 20:38:43 51° ESE 20:43:48 10° NNE
ISS -3.5 20:35:38 10° WNW 20:38:59 67° NNE 20:41:27 17° ESE
Cosmos 2369 3.8 20:33:28 10° SSW 20:39:07 82° WNW 20:44:50 10° NNE
Spot 2 Rocket 3.6 20:35:42 16° SSE 20:39:43 63° ENE 20:44:42 10° N
Cosmos 1354 Rocket 4.0 20:34:39 10° SSW 20:39:55 83° ESE 20:45:16 10° NNE
SPOT 3 Rocket 3.6 20:36:10 12° SSE 20:40:54 84° WSW 20:46:06 10° NNW
Cosmos 773 Rocket 4.0 20:36:02 10° NNW 20:41:18 85° ENE 20:45:19 17° SSE
Cosmos 1536 4.2 20:37:44 10° NNW 20:41:27 36° W 20:45:09 10° SSW
Cosmos 1844 Rocket 4.5 20:37:17 10° N 20:41:28 21° NE 20:45:38 10° E
ATLAS 2AS CENTAUR R/B 3.0 20:34:37 10° SSW 20:42:20 67° ESE 20:49:50 10° NE
Okean 1 3.2 20:40:20 10° S 20:44:20 85° E 20:48:23 10° N
Meteor 2-4 Rocket 4.2 20:40:22 15° SSE 20:44:50 43° E 20:50:09 10° NNE
H-2A R/B 4.2 20:42:37 10° N 20:46:02 26° WNW 20:49:26 10° WSW
Meteor 1-19 Rocket 4.1 20:41:00 10° S 20:46:26 80° E 20:51:52 10° NNE
Cosmos 1092 Rocket 4.1 20:41:14 10° N 20:47:23 64° ENE 20:52:05 18° SSE
Nadezhda 4 Rocket 4.1 20:41:58 10° NNW 20:48:12 76° W 20:54:08 11° S
RESURS DK-1 2.3 20:44:12 10° SSW 20:48:17 67° ESE 20:52:23 10° NNE
Cosmos 1697 Rocket 4.0 20:43:05 10° SW 20:48:28 44° NW 20:53:54 10° NNE
SL-4 R/B 3.7 20:45:59 10° W 20:49:42 25° SW 20:52:09 15° S
Meteor 2-14 Rocket 4.5 20:45:04 10° N 20:51:10 84° W 20:56:34 14° S
Cosmos 1634 Rocket 4.2 20:49:58 16° SSE 20:54:51 53° E 21:00:50 10° NNE
ARIANE 5 R/B 3.2 20:53:39 21° SE 20:56:18 46° ENE 21:00:37 10° N
Cosmos 1707 Rocket 4.0 20:54:13 21° SSE 20:56:45 44° E 21:00:57 10° NNE
ATLAS CENTAUR R/B 4.0 20:53:27 10° NNW 20:56:53 18° NNE 21:00:14 10° ENE
Cosmos 44 Rocket 3.3 20:53:51 10° NNW 20:58:34 71° NE 21:01:28 23° SE
Cosmos 2227 4.3 20:58:29 10° NNW 21:04:15 73° ENE 21:07:59 23° SE
Cosmos 158 Rocket 3.9 21:01:00 10° NNW 21:06:10 82° ENE 21:09:24 24° SSE
ATLAS 3B R/B 3.2 21:00:22 10° NW 21:07:40 65° NE 21:13:24 19° SE
NOSS 2-1 (E) 3.3 21:08:11 35° SE 21:08:33 36° ESE 21:11:33 10° NE
Cosmos 1975 2.8 21:07:22 10° N 21:11:28 86° E 21:13:33 28° S
USA 81 4.1 21:09:01 22° SSE 21:12:24 63° E 21:17:38 10° NNE
Cosmos 2026 Rocket 4.0 21:06:28 10° N 21:12:39 84° E 21:17:00 21° S
ERS-1 Rocket 3.1 21:12:32 21° S 21:15:53 75° WSW 21:20:57 10° NNW
SL-16 R/B 2.4 21:13:28 20° S 21:17:14 50° ESE 21:22:43 10° NE
Meteor 1-4 Rocket 3.7 21:15:41 10° N 21:18:45 28° ENE 21:19:36 25° E
CZ-4C R/B 4.4 21:13:17 10° NNW 21:19:03 29° NNE 21:25:44 10° E
Cosmos 1538 Rocket 4.0 21:16:15 10° NNW 21:21:32 80° ENE 21:24:18 28° SSE
Helios 1A Rocket 3.9 21:19:01 18° SSW 21:21:35 40° W 21:25:24 10° NNW
GENESIS II 4.0 21:20:46 17° SSW 21:23:36 70° SE 21:27:31 10° NE
CZ-2C R/B 3.9 21:19:13 10° NNE 21:24:00 81° WNW 21:27:47 16° SSW
Cosmos 1733 Rocket 3.1 21:21:18 10° N 21:25:46 73° E 21:27:44 32° SSE
Meteor 2-8 Rocket 4.4 21:25:01 19° S 21:29:35 85° E 21:35:42 10° N
OE (NEXTSAT) 4.0 21:27:32 10° W 21:30:51 83° S 21:32:08 34° E
EP 1 4.5 21:29:19 24° SSW 21:31:11 81° SE 21:33:59 10° NE
Geosat 4.2 21:28:35 27° SE 21:31:15 62° ENE 21:36:14 10° NNW
SJ 16-02 2.8 21:28:04 10° SW 21:32:07 36° WNW 21:36:12 10° N
SAR-Lupe-4 3.7 21:29:02 10° NNE 21:32:35 56° E 21:33:21 44° SSE
Cosmos 1356 4.1 21:35:10 35° E 21:35:10 35° E 21:38:12 10° NNE
Cosmos 2292 Rocket 4.0 21:34:35 10° NNW 21:37:17 31° W 21:38:15 25° SW
Cosmos 1908 Rocket 4.5 21:33:18 10° N 21:37:18 34° ENE 21:38:37 28° ESE
Cosmos 2278 4.4 21:32:23 10° SW 21:37:55 55° WNW 21:43:31 10° NNE
Cosmos 1862 Rocket 3.5 21:37:31 33° S 21:39:29 78° E 21:43:59 10° NNE
Cosmos 923 Rocket 4.5 21:34:24 10° NNW 21:39:38 53° ENE 21:42:10 29° SE
Cosmos 2360 Rocket 2.8 21:40:43 31° SE 21:42:22 37° ESE 21:47:31 10° NE
BREEZE M DEB (TANK) 4.5 21:38:24 10° WNW 21:43:16 57° SSW 21:55:47 19° SE
Cosmos 1726 3.5 21:41:28 10° NNE 21:44:34 25° ENE 21:45:09 24° E
Meteor 2-15 4.5 21:41:00 20° SSW 21:45:22 80° W 21:51:28 10° N
Cosmos 2263 Rocket 3.2 21:41:05 10° NW 21:46:09 37° WSW 21:49:11 21° SSW
Meteor 1-13 Rocket 4.4 21:44:29 32° SSE 21:46:50 53° E 21:52:13 10° NNE
Cosmos 2266 Rocket 4.4 21:42:23 10° N 21:48:28 50° ENE 21:51:20 29° SE
NOSS 2-1 (C) 3.1 21:46:44 19° SW 21:48:56 65° NW 21:52:09 10° NE
SPOT 5 4.3 21:45:43 17° SSW 21:49:15 35° W 21:53:56 10° NNW
Terra 2.6 21:47:57 24° SSW 21:50:26 44° W 21:55:00 10° NNW
Cosmos 1441 Rocket 3.0 21:51:04 51° S 21:51:56 85° E 21:55:40 10° NNE
Cosmos 1346 Rocket 3.6 21:50:23 23° SW 21:52:39 49° WNW 21:56:34 10° N
SAR-Lupe-1 4.2 21:50:03 10° N 21:53:37 69° WNW 21:54:47 39° SW
Cosmos 2279 Rocket 4.0 21:53:29 25° SSW 21:57:22 83° W 22:03:38 10° N
NOSS 2-1 (D) 3.6 21:56:58 15° WSW 21:59:25 49° NW 22:02:35 10° NNE
Cosmos 990 Rocket 3.9 21:57:54 33° S 22:00:19 75° ESE 22:05:35 10° NNE
USA 215 3.5 21:54:35 10° ENE 22:00:47 43° SE 22:03:42 28° S
Cosmos 1680 Rocket 3.8 21:56:03 10° NNW 22:01:18 60° ENE 22:03:26 35° SE
MINOTAUR IV R/B 4.5 22:00:16 38° SSW 22:01:59 82° ESE 22:06:30 10° NNE
Iridium 2 3.9 21:59:50 10° N 22:03:33 62° W 22:04:23 47° SW
Meteor 1-12 Rocket 4.3 22:00:29 10° N 22:06:27 74° ENE 22:08:53 37° SSE
Cosmos 1066 Rocket 4.2 22:05:06 31° S 22:08:00 89° WSW 22:13:43 10° N
ADEOS Rocket 4.3 22:05:31 17° ESE 22:08:42 28° ENE 22:13:44 10° N
Spot 4 4.4 22:07:13 34° ESE 22:08:50 49° ENE 22:13:27 10° N
Cosmos 1818 3.9 22:04:08 10° NNW 22:09:34 61° NE 22:12:08 31° ESE
Iridium 4 Rocket 3.4 22:07:49 10° N 22:12:23 61° E 22:13:44 43° SE
Cosmos 1898 Rocket 3.5 22:11:50 40° S 22:13:40 67° ESE 22:18:58 10° NNE
ISS -1.8 22:12:47 10° W 22:14:21 19° WSW 22:14:21 19° WSW
Cosmos 1900 4.5 22:15:19 45° SSE 22:16:28 56° ESE 22:21:29 10° NE
Okean 1-7 3.0 22:17:25 54° SSE 22:18:18 73° E 22:22:41 10° NNE
Iridium 51 3.9 22:21:01 71° WSW 22:21:13 75° W 22:24:46 10° N
Cosmos 2322 Rocket 2.3 22:18:02 22° SW 22:21:43 74° WNW 22:27:22 10° NNE
Okean 3 3.4 22:25:02 58° SE 22:25:34 66° E 22:29:48 10° NNE
Cosmos 1844 Rocket 2.6 22:20:27 10° NNW 22:26:04 81° WSW 22:27:57 43° SSE
Cosmos 2322 4.4 22:25:29 33° SE 22:26:23 35° ESE 22:31:31 10° NE
Cosmos 2333 Rocket 2.5 22:25:18 40° SE 22:26:34 47° ESE 22:31:59 10° NE
Cosmos 1805 3.9 22:24:06 10° NNW 22:27:49 43° W 22:28:28 39° WSW
Cosmos 1461 4.3 22:28:14 10° NNW 22:32:00 33° NE 22:33:54 22° E
H-2A R/B 3.7 22:28:10 10° NNE 22:32:10 49° E 22:32:20 49° ESE
BREEZE-M DEB (TANK) 3.2 22:29:49 10° W 22:31:52 36° SW 22:31:52 36° SW
ATLAS 2AS CENTAUR R/B 4.2 22:26:33 10° WSW 22:33:47 41° NW 22:40:47 10° NNE
Meteor 1-23 Rocket 4.2 22:34:01 41° S 22:36:08 79° E 22:41:59 10° NNE
ATLAS CENTAUR R/B 1.8 22:31:38 10° NW 22:36:32 74° NE 22:37:50 47° ESE
USA 267 3.7 22:30:12 10° ESE 22:36:37 60° NNE 22:43:02 10° NW
Cosmos 1766 3.5 22:39:10 10° NNW 22:43:02 57° W 22:43:23 55° WSW
Cosmos 2219 Rocket 2.4 22:44:47 44° SE 22:45:54 51° ESE 22:51:18 10° NE
Cosmos 1703 Rocket 4.0 22:48:16 43° SW 22:49:23 57° WNW 22:53:46 10° N
Cosmos 1844 3.8 22:44:01 10° NNW 22:49:46 64° WSW 22:51:27 44° S
Cosmos 372 Rocket 3.9 22:51:17 52° S 22:52:29 75° ESE 22:57:39 10° NNE
ATLAS 3B R/B 3.7 22:51:33 10° NW 22:58:07 35° WSW 23:00:39 28° SSW
Cosmos 1707 3.0 23:00:36 56° E 23:00:36 56° E 23:04:19 10° NNE
SL-16 R/B 3.8 22:56:36 10° WSW 23:01:34 31° NW 23:06:36 10° N
Cosmos 1655 Rocket 4.5 22:55:44 10° NNW 23:01:43 50° W 23:04:10 33° SW
NOSS 3-1 (A) 4.3 22:54:44 10° NW 23:02:02 65° NE 23:08:57 17° SE
Cosmos 1782 Rocket 3.8 23:00:01 10° NNW 23:04:16 54° W 23:04:50 50° WSW
Okean 2 3.9 23:06:39 43° E 23:06:42 43° E 23:10:36 10° NNE
ERS-2 2.1 23:03:26 10° NNE 23:06:52 80° NNE 23:06:52 80° NNE
CZ-4C R/B 3.1 23:01:30 10° NW 23:08:41 77° NE 23:14:17 23° SE
NOSS 3-1 (C) 4.0 23:01:55 10° NW 23:09:24 83° SW 23:14:03 31° SSE
USA 290 4.0 23:10:46 26° ENE 23:10:46 26° ENE 23:12:35 10° NE
Cosmos 1238 Rocket 3.9 23:09:49 10° NNE 23:11:57 27° ENE 23:11:57 27° ENE
Gblst 52 Del rocket 4.5 23:08:27 10° WSW 23:14:52 74° NNW 23:20:35 10° ENE
Cosmos 2237 Rocket 3.5 23:14:56 23° ESE 23:15:47 24° ESE 23:20:14 10° NE
KORONAS-FOTON 4.2 23:16:49 51° E 23:16:49 51° E 23:20:20 10° NNE
Cosmos 1470 3.0 23:15:17 10° NNW 23:19:01 55° W 23:19:01 55° W
COSMOS 2428 2.7 23:17:53 49° S 23:19:16 66° ESE 23:24:55 10° NNE
Cosmos 1726 3.8 23:16:32 10° NW 23:19:27 23° W 23:19:27 23° W
Cosmos 1300 Rocket 3.5 23:16:06 10° NNW 23:20:28 68° W 23:20:51 63° SW
ALOS 2 2.9 23:22:00 49° WSW 23:22:24 51° W 23:26:42 10° NNW
PSLV R/B 4.0 23:19:00 10° NNE 23:23:17 48° E 23:23:40 47° ESE
Cosmos 2151 Rocket 3.8 23:18:56 10° N 23:23:18 59° ENE 23:23:57 52° ESE
USA 305 4.3 23:26:44 25° E 23:26:44 25° E 23:28:57 10° ENE
Cosmos 1937 Rocket 4.4 23:22:46 26° WSW 23:25:17 44° WNW 23:30:21 10° N
Cosmos 2360 Rocket 3.3 23:22:25 17° WSW 23:26:20 39° NW 23:31:37 10° NNE
Cosmos 1242 Rocket 2.6 23:22:47 10° N 23:26:07 73° NNE 23:26:07 73° NNE
Okean 2 Rocket 3.1 23:22:52 10° N 23:27:25 75° E 23:28:05 62° SE
Cosmos 405 Rocket 3.6 23:28:20 36° E 23:28:20 36° E 23:31:37 10° NNE
In-Cosmos 22 4.1 23:29:31 50° S 23:31:04 89° E 23:36:35 10° NNE
Cosmos 1437 Rocket 3.6 23:29:44 10° N 23:33:15 37° ENE 23:33:33 36° E
Nimbus 7 Rocket 4.4 23:28:33 10° NNE 23:34:26 70° ESE 23:36:12 46° S
Cosmos 1908 3.3 23:31:02 10° N 23:34:47 65° ENE 23:34:47 65° E
Cosmos 1867 3.5 23:33:44 50° SSW 23:35:12 82° SE 23:40:43 10° NE
Meteor 1-21 4.3 23:34:35 45° SSW 23:36:27 79° WNW 23:42:18 10° N
Cosmos 1626 2.2 23:37:36 70° ENE 23:37:36 70° ENE 23:41:01 10° NNE
SL-08 R/B 4.4 23:32:54 10° N 23:39:12 89° WSW 23:41:27 43° S
USA 215 3.5 23:37:30 10° NE 23:44:01 69° NNW 23:50:32 10° WSW
Cosmos 1953 2.9 23:40:24 10° N 23:44:17 46° ENE 23:44:46 44° E
Cosmos 2278 Rocket 2.4 23:40:35 10° NNW 23:46:16 67° ENE 23:48:51 33° SE
Cosmos 468 4.4 23:42:19 10° NNW 23:47:34 84° ENE 23:49:03 48° SSE
Cosmos 1674 2.8 23:50:45 62° WNW 23:50:45 62° WNW 23:54:27 10° N
Sich 1 Rocket 4.0 23:49:25 10° NNW 23:53:37 46° W 23:54:00 44° WSW
ADEOS Rocket 3.2 23:52:27 40° SW 23:53:55 49° W 23:59:44 10° NNW
